CW0354 Weather Reports


time (UTC)temp
F
wind
direction
speed
knots
gust
knots
rain 1hr
in
rain 24hr
in
rain mn
in
humidity
%
barometer
mb
20260504194904 65 224 8.7 15.6 0.00 0.00 0.00 57 1010.9
20260504194408 65 214 9.6 18.2 0.00 0.00 0.00 57 1011.0
20260504193909 65 225 8.7 18.2 0.00 0.00 0.00 57 1010.9
20260504193409 65 217 8.7 15.6 0.00 0.00 0.00 57 1011.1
20260504192909 65 211 8.7 15.6 0.00 0.00 0.00 57 1011.1
20260504192403 65 224 10.4 15.6 0.00 0.00 0.00 56 1011.1
20260504191908 65 220 9.6 19.1 0.00 0.00 0.00 56 1011.1
20260504191408 65 216 9.6 15.6 0.00 0.00 0.00 56 1011.1
20260504190908 65 227 9.6 17.4 0.00 0.00 0.00 56 1011.2
20260504190408 66 226 8.7 17.4 0.00 0.00 0.00 56 1011.3
20260504185908 66 230 8.7 15.6 0.00 0.00 0.00 56 1011.4
20260504185409 66 216 9.6 18.2 0.00 0.00 0.00 56 1011.4
20260504184908 65 232 8.7 20.9 0.00 0.00 0.00 56 1011.5
20260504184409 66 226 8.7 15.6 0.00 0.00 0.00 56 1011.6
20260504183909 65 225 8.7 18.2 0.00 0.00 0.00 56 1011.6
20260504183409 65 232 7.8 15.6 0.00 0.00 0.00 56 1011.6
20260504182909 65 223 7.8 15.6 0.00 0.00 0.00 56 1011.6
20260504182408 65 217 8.7 13.9 0.00 0.00 0.00 57 1011.8
20260504181908 65 224 9.6 18.2 0.00 0.00 0.00 57 1011.8
20260504181408 65 226 8.7 14.8 0.00 0.00 0.00 57 1011.8
20260504180909 65 217 10.4 14.8 0.00 0.00 0.00 57 1011.8
20260504175908 65 224 8.7 13.0 0.00 0.00 0.00 57 1011.9
20260504174908 65 218 8.7 14.8 0.00 0.00 0.00 58 1011.9
20260504174408 65 221 8.7 18.2 0.00 0.00 0.00 58 1012.0
20260504173907 65 213 9.6 15.6 0.00 0.00 0.00 58 1012.1
20260504173408 65 227 8.7 14.8 0.00 0.00 0.00 59 1012.1
20260504172908 65 223 7.8 14.8 0.00 0.00 0.00 58 1012.2
20260504172407 65 228 8.7 14.8 0.00 0.00 0.00 58 1012.3
20260504171408 65 232 7.8 13.9 0.00 0.00 0.00 59 1012.5
20260504170907 65 227 8.7 14.8 0.00 0.00 0.00 58 1012.5
20260504150910 68 239 7.0 11.3 0.00 0.00 0.00 53 1013.9
20260504150408 68 234 6.1 10.4 0.00 0.00 0.00 52 1013.9
20260504140909 66 237 7.0 13.0 0.00 0.00 0.00 54 1014.1
20260504130408 61 255 6.1 12.2 0.00 0.00 0.00 59 1014.7
20260504110409 53 275 5.2 12.2 0.00 0.00 0.00 66 1014.7
20260504100408 51 278 7.8 13.0 0.00 0.00 0.00 72 1014.5
20260504081908 52 277 5.2 10.4 0.00 0.00 0.00 63 1013.7
20260504080405 52 279 5.2 10.4 0.00 0.00 0.00 64 1013.7
20260504070408 52 279 6.1 10.4 0.00 0.00 0.00 61 1013.2
20260504050408 52 263 5.2 8.7 0.00 0.00 0.00 65 1012.9
20260504045905 52 274 4.3 10.4 0.00 0.00 0.00 64 1012.8
20260504045406 53 267 5.2 10.4 0.00 0.00 0.00 64 1012.8
20260504044908 53 276 3.5 7.8 0.00 0.00 0.00 64 1012.8
20260504043905 53 283 4.3 12.2 0.00 0.00 0.00 64 1012.8
20260504042909 53 277 6.1 12.2 0.00 0.00 0.00 63 1012.8
20260504042407 53 266 4.3 10.4 0.00 0.00 0.00 63 1012.8
20260504041908 53 279 6.1 13.0 0.00 0.00 0.00 63 1012.8
20260504040906 53 269 5.2 8.7 0.00 0.00 0.00 63 1012.6
20260504035909 53 271 4.3 8.7 0.00 0.00 0.00 62 1012.6
20260504035406 53 254 4.3 7.0 0.00 0.00 0.00 60 1012.5
20260504034909 53 269 4.3 8.7 0.00 0.00 0.00 60 1012.7
20260504034408 53 268 3.5 7.8 0.00 0.00 0.00 60 1012.6
20260504033907 53 277 4.3 7.8 0.00 0.00 0.00 61 1012.5
20260504033408 53 283 5.2 10.4 0.00 0.00 0.00 64 1012.5
20260504031908 53 264 4.3 7.8 0.00 0.00 0.00 64 1012.4
20260504031409 53 265 3.5 7.0 0.00 0.00 0.00 63 1012.4
20260504030908 53 262 3.5 7.0 0.00 0.00 0.00 62 1012.5
20260504030408 53 267 4.3 7.0 0.00 0.00 0.00 62 1012.5
20260504025908 53 276 5.2 7.8 0.00 0.00 0.00 62 1012.5
20260504025405 53 281 6.1 12.2 0.00 0.00 0.00 64 1012.5
20260504024908 53 281 5.2 7.8 0.00 0.00 0.00 65 1012.4
20260504024409 53 279 4.3 7.0 0.00 0.00 0.00 65 1012.5
20260504023905 53 249 1.7 5.2 0.00 0.00 0.00 65 1012.5
20260504023408 53 277 3.5 7.0 0.00 0.00 0.00 64 1012.6
20260504022908 53 276 3.5 7.8 0.00 0.00 0.00 64 1012.6
20260504021909 53 265 4.3 7.0 0.00 0.00 0.00 62 1012.4
20260504021409 53 261 2.6 6.1 0.00 0.00 0.00 61 1012.4
20260504020908 53 259 3.5 6.1 0.00 0.00 0.00 60 1012.3
20260504020409 53 259 2.6 7.0 0.00 0.00 0.00 60 1012.4
20260504015905 53 261 4.3 6.1 0.00 0.00 0.00 60 1012.4
20260504015409 53 261 2.6 4.3 0.00 0.00 0.00 59 1012.4
20260504014908 53 272 2.6 6.1 0.00 0.00 0.00 57 1012.4
20260504014409 53 274 3.5 6.1 0.00 0.00 0.00 55 1012.3
20260504013408 53 255 2.6 4.3 0.00 0.00 0.00 49 1012.2
20260504012908 53 306 0.0 0.0 0.00 0.00 0.00 46 1012.2
20260504011909 53 306 0.0 0.0 0.00 0.00 0.00 42 1012.1
20260504011408 54 306 0.0 0.0 0.00 0.00 0.00 42 1012.0
20260504010909 54 306 0.0 0.0 0.00 0.00 0.00 40 1011.9
20260504010408 54 306 0.0 0.0 0.00 0.00 0.00 39 1011.8
20260504005908 55 306 0.0 0.0 0.00 0.00 0.00 38 1011.9
20260504004908 55 306 0.0 0.0 0.00 0.00 0.00 36 1011.6
20260504003904 56 306 0.0 0.9 0.00 0.00 0.00 34 1011.5
20260504003408 56 294 0.0 0.0 0.00 0.00 0.00 34 1011.5
20260504002904 57 294 0.0 0.9 0.00 0.00 0.00 33 1011.3
20260504002408 57 309 0.0 1.7 0.00 0.00 0.00 32 1011.2
20260504001908 57 296 1.7 4.3 0.00 0.00 0.00 32 1011.2
20260504001408 57 299 0.9 7.0 0.00 0.00 0.00 32 1011.2
20260504000909 58 297 1.7 5.2 0.00 0.00 0.00 32 1011.1
20260504000404 58 315 1.7 2.6 0.00 0.00 0.00 31 1011.0
20260503235909 58 303 2.6 5.2 0.00 0.00 0.00 30 1011.0
20260503235405 58 342 0.9 2.6 0.00 0.00 0.00 30 1010.9
20260503234905 59 336 0.9 4.3 0.00 0.00 0.00 29 1011.0
20260503234408 59 303 1.7 7.0 0.00 0.00 0.00 29 1010.7
20260503233908 59 292 2.6 7.8 0.00 0.00 0.00 28 1010.8
20260503233408 59 335 2.6 7.0 0.00 0.00 0.00 28 1010.7
20260503232909 59 310 3.5 7.0 0.00 0.00 0.00 27 1010.6
20260503231908 60 314 4.3 8.7 0.00 0.00 0.00 26 1010.4
20260503230904 60 355 2.6 7.8 0.00 0.00 0.00 26 1010.4
20260503230408 61 320 4.3 11.3 0.00 0.00 0.00 26 1010.4
20260503225908 61 2 5.2 8.7 0.00 0.00 0.00 26 1010.4
20260503224904 61 307 5.2 13.0 0.00 0.00 0.00 26 1010.4
20260503224408 62 8 2.6 10.4 0.00 0.00 0.00 25 1010.3
20260503223908 62 353 4.3 11.3 0.00 0.00 0.00 24 1010.4
20260503223408 62 331 7.0 13.9 0.00 0.00 0.00 24 1010.4
20260503222908 62 320 6.1 15.6 0.00 0.00 0.00 25 1010.2
20260503222406 62 337 4.3 8.7 0.00 0.00 0.00 25 1010.3
20260503221908 62 327 6.1 15.6 0.00 0.00 0.00 25 1010.2
20260503221409 61 290 5.2 13.9 0.00 0.00 0.00 26 1010.1
20260503220907 62 323 4.3 12.2 0.00 0.00 0.00 26 1010.2
20260503215406 62 298 4.3 13.0 0.00 0.00 0.00 27 1010.3
20260503214908 62 338 7.8 17.4 0.00 0.00 0.00 26 1010.3
20260503214409 62 351 6.1 13.9 0.00 0.00 0.00 26 1010.3
20260503213907 62 334 4.3 14.8 0.00 0.00 0.00 26 1010.3
20260503213408 62 285 7.8 15.6 0.00 0.00 0.00 27 1010.2
20260503212909 62 312 4.3 17.4 0.00 0.00 0.00 28 1010.2
20260503212408 61 327 7.0 13.0 0.00 0.00 0.00 27 1010.1
20260503211908 61 328 10.4 20.0 0.00 0.00 0.00 25 1010.1
20260503211408 62 329 7.0 15.6 0.00 0.00 0.00 27 1010.1
20260503210908 61 305 7.8 18.2 0.00 0.00 0.00 28 1010.1
20260503210408 61 288 7.8 15.6 0.00 0.00 0.00 28 1010.0
20260503205908 61 318 8.7 17.4 0.00 0.00 0.00 26 1010.0
20260503205408 62 327 7.8 21.7 0.00 0.00 0.00 27 1010.0
20260503204908 61 332 7.0 18.2 0.00 0.00 0.00 27 1010.1
20260503204409 60 332 8.7 15.6 0.00 0.00 0.00 28 1010.0
20260503203907 60 324 10.4 20.0 0.00 0.00 0.00 28 1010.1
20260503203413 60 348 10.4 25.2 0.00 0.00 0.00 28 1009.9
20260503202908 60 311 7.8 19.1 0.00 0.00 0.00 30 1010.0
20260503202407 60 328 7.0 13.9 0.00 0.00 0.00 31 1010.1
20260503201906 59 307 10.4 19.1 0.00 0.00 0.00 31 1010.1
20260503201409 60 341 6.1 14.8 0.00 0.00 0.00 30 1010.1
20260503200408 60 342 7.8 18.2 0.00 0.00 0.00 29 1010.2
20260503195908 60 327 7.0 15.6 0.00 0.00 0.00 30 1010.3
20260503195407 61 322 7.0 13.9 0.00 0.00 0.00 30 1010.4